Flag for Rwanda Weather past 2 weeks in Butare, Rwanda

Now
70 °F

Passing clouds.


Feels Like: 70 °F
Forecast: 55 / 82 °F
Wind: No wind

Location: Kigali Airport

Current Time: Mar 6, 2015 at 11:45:36 PM

Latest Report: Mar 6, 2015 at 11:00 PM


Visibility: N/A

Pressure: 30.12 "Hg

Humidity: 73%

Dew point: 61 °F

Location of ButareLocation

Historic Weather in Butare — Graph

°F

Butare temperature yesterday

Maximum temperature yesterday: 86 °F (at 3:30 PM)
Minimum temperature yesterday: 61 °F (at 2:30 AM)
Average temperature yesterday: 73 °F

Past Weeks' High & Low Weather Summary

 TemperatureHumidityPressure
High86 °F (Feb 22, 12:30 PM)100% (Feb 20, 4:00 AM)30.74 "Hg (Feb 20, 4:00 AM)
Low59 °F (Feb 21, 4:00 AM)40% (Mar 5, 3:30 PM)29.95 "Hg (Feb 20, 5:00 PM)
Average70 °F82%30.08 "Hg
* Reported Feb 19 10:00 PM — Mar 6 10:30 PM, Butare, Weather by CustomWeather, © 2015

Note: Actual official high and low records may vary slightly from our data, if they occured in-between our weather recording intervals... More about our weather records

Advertising

Butare weather history for previous 24 hours

 ConditionsComfort  
Time TempWeatherWind HumidityBarometerVisibility
10:30 PM
Fri, Mar 6
72 °FPassing clouds.No wind69%30.12 "HgN/A
10:00 PM72 °FPassing clouds.No wind69%30.12 "HgN/A
9:30 PM75 °FPassing clouds.2 mph57%30.12 "HgN/A
9:00 PM72 °FPassing clouds.No wind65%30.12 "HgN/A
8:30 PM73 °FPassing clouds.No wind65%30.09 "HgN/A
8:00 PM75 °FPassing clouds.5 mph61%30.09 "HgN/A
7:30 PM77 °FPassing clouds.3 mph57%30.07 "HgN/A
7:00 PM77 °FPassing clouds.5 mph57%30.07 "HgN/A
6:30 PM79 °FPassing clouds.3 mph51%30.04 "HgN/A
6:00 PM79 °FPassing clouds.5 mph51%30.04 "HgN/A
5:30 PM81 °FPassing clouds.6 mph48%30.04 "HgN/A
5:00 PM81 °FThunderstorms. Cloudy.3 mph51%30.04 "HgN/A
4:30 PM82 °FScattered clouds.9 mph48%30.04 "HgN/A
4:00 PM84 °FScattered clouds.3 mph48%30.04 "HgN/A
3:30 PM82 °FScattered clouds.12 mph51%30.04 "HgN/A
3:00 PM84 °FScattered clouds.7 mph45%30.04 "HgN/A
2:30 PM84 °FScattered clouds.8 mph45%30.07 "HgN/A
2:00 PM84 °FScattered clouds.8 mph45%30.09 "HgN/A
1:30 PM84 °FScattered clouds.7 mph45%30.09 "HgN/A
1:00 PM82 °FScattered clouds.3 mph51%30.12 "HgN/A
12:30 PM82 °FScattered clouds.3 mph51%30.15 "HgN/A
12:00 PM81 °FScattered clouds.3 mph58%30.15 "HgN/A
11:30 AM79 °FScattered clouds.3 mph61%30.18 "HgN/A
11:00 AM79 °FScattered clouds.6 mph61%30.18 "HgN/A
10:00 AM77 °FScattered clouds.6 mph65%30.21 "HgN/A
9:30 AM77 °FScattered clouds.3 mph65%30.21 "Hg5 mi
9:00 AM75 °FPassing clouds.No wind69%30.18 "Hg5 mi
8:30 AM73 °FScattered clouds.No wind74%30.18 "Hg5 mi
8:00 AM68 °FScattered clouds.No wind88%30.18 "Hg5 mi
7:00 AM64 °FScattered clouds.No wind100%30.15 "Hg5 mi
6:30 AM63 °FScattered clouds.3 mph100%30.15 "Hg5 mi
6:00 AM63 °FPassing clouds.No wind100%30.15 "Hg5 mi
5:30 AM63 °FPassing clouds.No wind100%30.12 "HgN/A
5:00 AM63 °FPassing clouds.No wind100%30.12 "HgN/A
4:30 AM63 °FPassing clouds.No wind100%30.09 "HgN/A
4:00 AM64 °FPassing clouds.No wind94%30.09 "HgN/A
3:30 AM64 °FPassing clouds.No wind94%30.09 "HgN/A
3:00 AM64 °FPassing clouds.No wind94%30.09 "HgN/A
2:30 AM66 °FPassing clouds.No wind88%30.09 "HgN/A
2:00 AM66 °FPassing clouds.No wind88%30.09 "HgN/A
1:30 AM68 °FPassing clouds.No wind83%30.09 "HgN/A
1:00 AM68 °FPassing clouds.No wind83%30.12 "HgN/A
12:00 AM68 °FPassing clouds.No wind83%30.12 "HgN/A
11:30 PM
Thu, Mar 5
70 °FPassing clouds.No wind78%30.12 "HgN/A
11:00 PM72 °FPassing clouds.No wind69%30.15 "HgN/A
Weather by CustomWeather, © 2015

See weather overviewHow to use our weather pages